Location: Mermaid+Beach
(28.0410°S, 153.4380°E)
Time: 11:01:16
(UTC+10:00)

ISS - Visible Passes

Search period start: 23 June 2018 00:00
Search period end: 03 July 2018 00:00
Orbit: 402 x 408 km, 51.6° (Epoch: 23 June)

Date Brightness Start Highest point End Pass type
(mag) Time Alt. Az. Time Alt. Az. Time Alt. Az.
23 Jun -3.8 18:16:02 10° NNW 18:19:16 60° NE 18:19:47 51° E visible
24 Jun -2.4 17:24:36 10° N 17:27:20 24° NE 17:30:05 10° ESE visible
24 Jun -1.2 19:01:19 10° W 19:03:00 18° WSW 19:03:00 18° WSW visible
25 Jun -2.7 18:08:30 10° WNW 18:11:36 38° SW 18:13:25 20° SSE visible
27 Jun -1.2 18:02:02 10° WSW 18:04:05 15° SW 18:06:07 10° S visible
